FW0879 Weather Reports


Display with metric or nautical units.
time (UTC)temp
F
wind
direction
speed
MPH
gust
MPH
rain 1hr
in
rain 24hr
in
rain mn
in
humidity
%
barometer
mb
20260506193403 64 136 3.0 5.0 0.00 0.00 0.00 69 1009.3
20260506192903 64 134 3.0 5.0 0.00 0.00 0.00 69 1009.3
20260506192403 64 135 3.0 5.0 0.00 0.00 0.00 69 1009.2
20260506191903 64 129 2.0 5.0 0.00 0.00 0.00 69 1009.2
20260506191404 64 117 4.0 6.0 0.00 0.00 0.00 69 1009.1
20260506190903 64 132 4.0 6.0 0.00 0.00 0.00 68 1009.1
20260506190403 65 138 4.0 6.0 0.00 0.00 0.00 68 1009.2
20260506185903 65 135 3.0 5.0 0.00 0.00 0.00 68 1009.2
20260506184903 65 132 5.0 7.0 0.00 0.00 0.00 67 1009.2
20260506184404 65 116 5.0 6.0 0.00 0.00 0.00 66 1009.2
20260506183903 65 129 2.0 6.0 0.00 0.00 0.00 66 1009.2
20260506182904 65 117 5.0 8.0 0.00 0.00 0.00 65 1009.1
20260506182403 65 114 3.0 6.0 0.00 0.00 0.00 66 1009.0
20260506181904 65 76 3.0 6.0 0.00 0.00 0.00 66 1009.0
20260506181404 65 122 6.0 7.0 0.00 0.00 0.00 66 1009.0
20260506180904 65 108 5.0 6.0 0.00 0.00 0.00 66 1009.1
20260506175904 65 113 5.0 7.0 0.00 0.00 0.00 66 1008.9
20260506175404 65 105 5.0 9.0 0.00 0.02 0.00 66 1009.0
20260506174904 65 125 3.0 8.0 0.00 0.03 0.00 66 1008.8
20260506174404 65 106 5.0 9.0 0.00 0.03 0.00 66 1008.9
20260506173903 65 109 6.0 9.0 0.00 0.03 0.00 65 1008.9
20260506173404 65 89 6.0 9.0 0.00 0.03 0.00 64 1008.9
20260506172904 65 113 5.0 10.0 0.00 0.03 0.00 64 1008.9
20260506172403 65 94 7.0 9.0 0.00 0.03 0.00 64 1008.9
20260506171903 65 98 6.0 12.0 0.00 0.03 0.00 65 1008.9
20260506171403 65 91 6.0 12.0 0.00 0.03 0.00 65 1008.9
20260506170904 66 84 6.0 12.0 0.00 0.03 0.00 66 1008.9
20260506170403 65 85 6.0 12.0 0.00 0.03 0.00 66 1008.9
20260506165904 65 76 6.0 12.0 0.00 0.03 0.00 66 1008.9
20260506165404 65 93 7.0 12.0 0.00 0.03 0.00 65 1009.0
20260506164903 65 90 8.0 12.0 0.00 0.03 0.00 67 1008.9
20260506164404 65 73 5.0 12.0 0.00 0.03 0.00 67 1009.0
20260506163904 65 84 8.0 12.0 0.00 0.03 0.00 66 1009.1
20260506163404 65 80 9.0 12.0 0.00 0.03 0.00 67 1009.1
20260506162903 65 87 7.0 12.0 0.00 0.03 0.00 68 1009.1
20260506162403 65 78 9.0 12.0 0.00 0.03 0.00 67 1009.2
20260506161403 66 74 7.0 13.0 0.00 0.03 0.00 68 1009.0
20260506160903 66 74 8.0 12.0 0.00 0.03 0.00 66 1009.0
20260506160404 66 98 8.0 12.0 0.00 0.03 0.00 68 1009.0
20260506155904 66 75 9.0 13.0 0.00 0.03 0.00 68 1009.0
20260506155403 66 80 6.0 13.0 0.00 0.03 0.00 67 1008.9
20260506154904 66 81 9.0 12.0 0.00 0.03 0.00 68 1009.0
20260506153903 66 77 7.0 14.0 0.00 0.03 0.00 66 1009.0
20260506153404 66 74 7.0 13.0 0.00 0.03 0.00 66 1009.1
20260506152404 66 85 9.0 13.0 0.00 0.03 0.00 67 1009.1
20260506151404 66 84 7.0 12.0 0.00 0.03 0.00 67 1009.0
20260506150404 65 74 7.0 12.0 0.00 0.03 0.00 67 1009.1
20260506145903 65 83 8.0 13.0 0.00 0.03 0.00 68 1009.1
20260506145404 65 87 9.0 12.0 0.00 0.03 0.00 68 1009.1
20260506144903 65 80 7.0 12.0 0.00 0.03 0.00 67 1009.2
20260506144403 65 88 7.0 12.0 0.00 0.03 0.00 67 1009.3
20260506143903 65 87 7.0 12.0 0.00 0.03 0.00 66 1009.4
20260506143403 65 69 7.0 12.0 0.00 0.03 0.00 66 1009.4
20260506142404 65 80 6.0 10.0 0.00 0.03 0.00 66 1009.6
20260506141903 65 73 5.0 12.0 0.00 0.03 0.00 66 1009.7
20260506141403 65 91 5.0 12.0 0.00 0.03 0.00 66 1009.8
20260506140903 65 104 7.0 13.0 0.00 0.03 0.00 66 1009.8
20260506140403 65 73 7.0 17.0 0.00 0.03 0.00 66 1009.8
20260506135404 64 79 8.0 14.0 0.00 0.03 0.00 66 1009.8
20260506134903 64 96 10.0 15.0 0.00 0.03 0.00 66 1009.8
20260506133904 64 71 8.0 13.0 0.00 0.04 0.00 68 1010.0
20260506133403 65 91 12.0 15.0 0.00 0.04 0.00 68 1010.0
20260506132904 65 87 10.0 15.0 0.00 0.04 0.00 67 1010.0
20260506131904 65 95 10.0 18.0 0.00 0.04 0.00 67 1010.1
20260506131404 65 82 9.0 14.0 0.00 0.04 0.00 67 1010.1
20260506130904 65 73 8.0 12.0 0.00 0.04 0.00 66 1010.0
20260506130404 65 49 5.0 13.0 0.00 0.04 0.00 68 1010.2
20260506125904 65 89 8.0 15.0 0.00 0.04 0.00 68 1010.1
20260506125404 65 83 10.0 14.0 0.00 0.04 0.00 66 1010.2
20260506124904 66 83 6.0 12.0 0.00 0.04 0.00 65 1010.2
20260506123904 66 57 7.0 12.0 0.00 0.04 0.00 66 1010.2
20260506122904 65 60 7.0 15.0 0.00 0.09 0.00 67 1010.2
20260506122404 66 87 7.0 14.0 0.00 0.11 0.00 68 1010.2
20260506121904 66 77 7.0 13.0 0.00 0.11 0.00 68 1010.4
20260506121404 66 61 10.0 13.0 0.00 0.11 0.00 66 1010.3
20260506120903 66 63 6.0 12.0 0.00 0.11 0.00 67 1010.4
20260506120404 66 74 7.0 13.0 0.00 0.11 0.00 66 1010.4
20260506114404 66 46 10.0 14.0 0.00 0.11 0.00 65 1010.4
20260506113904 66 52 7.0 14.0 0.00 0.11 0.00 64 1010.5
20260506113403 67 73 7.0 13.0 0.00 0.11 0.00 64 1010.6
20260506112902 67 83 7.0 12.0 0.00 0.11 0.00 65 1010.6
20260506112402 67 56 9.0 15.0 0.00 0.11 0.00 64 1010.6
20260506111402 66 68 6.0 12.0 0.00 0.11 0.00 66 1010.7
20260506110902 66 67 7.0 13.0 0.00 0.11 0.00 66 1010.9
20260506105903 66 36 6.0 12.0 0.00 0.11 0.00 66 1010.8
20260506104902 66 70 6.0 12.0 0.00 0.11 0.00 67 1010.8
20260506104402 66 49 6.0 12.0 0.00 0.11 0.00 67 1010.7
20260506103903 65 55 7.0 12.0 0.00 0.11 0.00 66 1010.9
20260506103402 66 73 5.0 13.0 0.00 0.11 0.00 66 1010.8
20260506102902 65 49 3.0 13.0 0.00 0.11 0.00 65 1010.8
20260506102402 65 25 5.0 12.0 0.00 0.11 0.00 65 1010.8
20260506101402 65 65 8.0 12.0 0.00 0.11 0.00 67 1010.8
20260506100902 65 45 5.0 8.0 0.00 0.11 0.00 68 1010.7
20260506100402 65 46 7.0 12.0 0.00 0.11 0.00 70 1010.7
20260506095903 65 57 7.0 12.0 0.00 0.11 0.00 69 1010.6
20260506095402 65 36 6.0 12.0 0.00 0.11 0.00 69 1010.8
20260506094402 65 44 6.0 13.0 0.00 0.11 0.00 69 1010.7
20260506093903 65 62 6.0 12.0 0.00 0.11 0.00 69 1010.6
20260506093402 65 52 9.0 14.0 0.00 0.11 0.00 69 1010.6
20260506092902 65 51 6.0 13.0 0.00 0.11 0.00 69 1010.5
20260506091402 65 16 5.0 9.0 0.00 0.11 0.00 69 1010.2
20260506090902 65 53 8.0 12.0 0.00 0.11 0.00 69 1010.2
20260506085902 65 58 5.0 10.0 0.00 0.11 0.00 70 1010.1
20260506085402 65 57 5.0 12.0 0.00 0.11 0.00 70 1010.1
20260506084902 65 64 5.0 12.0 0.00 0.11 0.00 70 1010.2
20260506084402 65 48 9.0 15.0 0.00 0.11 0.00 69 1010.2
20260506083902 65 59 6.0 14.0 0.00 0.11 0.00 70 1010.1
20260506083402 65 48 6.0 12.0 0.00 0.11 0.00 69 1010.1
20260506082902 65 66 5.0 12.0 0.00 0.11 0.00 70 1010.2
20260506082402 65 52 7.0 12.0 0.00 0.11 0.00 69 1010.2
20260506081902 65 71 6.0 10.0 0.00 0.11 0.00 70 1010.2
20260506080903 65 49 6.0 12.0 0.00 0.11 0.00 71 1010.1
20260506080402 65 43 6.0 12.0 0.00 0.11 0.00 72 1010.1
20260506073402 65 52 3.0 10.0 0.00 0.11 0.00 72 1010.1
20260506072904 65 54 4.0 10.0 0.00 0.11 0.00 71 1010.1
20260506072402 65 87 5.0 8.0 0.00 0.11 0.00 70 1010.1
20260506071902 65 54 3.0 6.0 0.00 0.11 0.00 72 1010.0
20260506071402 64 60 3.0 7.0 0.00 0.11 0.00 72 1010.0
20260506070902 64 65 5.0 10.0 0.00 0.11 0.00 71 1010.1
20260506070402 64 39 2.0 5.0 0.00 0.11 0.00 72 1010.0
20260506062402 64 44 9.0 12.0 0.00 0.11 0.00 71 1009.9
20260506061903 65 41 4.0 12.0 0.00 0.11 0.00 71 1009.9
20260506061403 65 47 3.0 8.0 0.00 0.11 0.00 70 1010.0
20260506060902 64 4 4.0 9.0 0.00 0.11 0.00 70 1009.9
20260506060402 64 38 4.0 9.0 0.00 0.11 0.00 71 1009.9
20260506051402 64 15 10.0 14.0 0.00 0.11 0.00 69 1009.3
20260506044902 64 15 10.0 16.0 0.00 0.11 0.00 69 1009.1
20260506044403 64 13 9.0 13.0 0.00 0.11 0.00 69 1009.1
20260506043902 64 13 9.0 13.0 0.00 0.11 0.00 69 1009.1
20260506043402 64 12 8.0 13.0 0.00 0.11 0.00 70 1009.0
20260506042903 64 20 9.0 14.0 0.00 0.11 0.00 71 1009.0
20260506041903 64 11 9.0 13.0 0.00 0.11 0.00 71 1009.0
20260506041402 64 15 9.0 13.0 0.00 0.11 0.00 72 1009.0
20260506040903 64 25 6.0 12.0 0.00 0.11 0.00 73 1009.0
20260506040403 64 34 7.0 13.0 0.00 0.11 0.00 73 1009.0
20260506035902 64 14 9.0 13.0 0.00 0.11 0.00 73 1008.9
20260506035402 65 31 9.0 13.0 0.00 0.11 0.00 75 1008.9
20260506034902 65 14 5.0 12.0 0.00 0.11 0.00 75 1009.0
20260506034403 65 24 5.0 7.0 0.00 0.11 0.00 75 1009.0
20260506033902 65 37 3.0 6.0 0.00 0.11 0.00 75 1009.0
20260506033402 65 35 2.0 5.0 0.00 0.11 0.00 75 1009.0
20260506032903 65 44 2.0 3.0 0.00 0.11 0.00 75 1009.0
20260506032403 65 38 2.0 6.0 0.00 0.11 0.00 74 1009.0
20260506031903 65 42 3.0 8.0 0.00 0.11 0.00 74 1009.0
20260506031402 65 49 5.0 10.0 0.00 0.11 0.00 74 1008.9
20260506030902 65 45 5.0 10.0 0.00 0.11 0.00 75 1008.9
20260506030403 65 56 5.0 8.0 0.00 0.11 0.00 76 1008.9
20260506025902 65 61 4.0 7.0 0.00 0.11 0.00 76 1008.9
20260506025402 65 47 5.0 9.0 0.00 0.11 0.00 76 1008.9
20260506024902 65 46 4.0 8.0 0.00 0.11 0.00 76 1008.9
20260506024402 65 59 3.0 10.0 0.00 0.11 0.00 77 1008.9
20260506023903 65 48 4.0 7.0 0.00 0.11 0.00 77 1008.9
20260506023402 65 48 3.0 10.0 0.00 0.11 0.00 76 1008.9
20260506022403 65 45 7.0 13.0 0.00 0.11 0.00 76 1008.9
20260506021402 65 26 5.0 9.0 0.00 0.11 0.00 76 1009.0
20260506020903 65 50 6.0 12.0 0.00 0.11 0.00 77 1009.0
20260506020402 65 45 5.0 14.0 0.00 0.11 0.00 77 1009.0
20260506015903 65 37 6.0 12.0 0.00 0.11 0.00 77 1009.0
20260506015403 65 31 3.0 13.0 0.00 0.11 0.00 78 1009.0
20260506014902 65 46 7.0 12.0 0.00 0.11 0.00 78 1009.0
20260506014402 64 41 6.0 13.0 0.00 0.11 0.00 78 1009.0
20260506013903 64 24 8.0 16.0 0.00 0.11 0.00 79 1009.0
20260506013402 64 15 8.0 12.0 0.00 0.11 0.00 80 1009.0
20260506012903 65 19 8.0 14.0 0.00 0.11 0.00 80 1009.0
20260506011903 65 47 8.0 13.0 0.00 0.11 0.00 80 1009.0
20260506011402 65 14 7.0 13.0 0.00 0.11 0.00 80 1009.0
20260506010903 65 30 11.0 16.0 0.00 0.11 0.00 80 1009.0
20260506010402 65 32 8.0 15.0 0.00 0.11 0.00 82 1009.0
20260506005402 65 26 12.0 16.0 0.00 0.11 0.00 83 1009.0
20260506004902 65 28 9.0 15.0 0.00 0.11 0.00 84 1009.0
20260506003902 65 13 10.0 15.0 0.00 0.11 0.00 84 1009.0
20260506003403 65 31 6.0 13.0 0.00 0.11 0.00 84 1009.0
20260506002903 65 336 5.0 9.0 0.00 0.11 0.00 83 1009.0
20260506002402 65 290 5.0 9.0 0.00 0.11 0.00 83 1009.0
20260506001903 65 291 7.0 13.0 0.00 0.11 0.00 83 1008.9
20260506001403 65 308 6.0 12.0 0.00 0.11 0.00 83 1008.9
20260505235903 65 271 9.0 13.0 0.00 0.11 0.00 82 1009.0
20260505235403 65 269 9.0 16.0 0.00 0.11 0.00 81 1009.0
20260505234903 65 265 12.0 17.0 0.00 0.11 0.00 81 1009.0
20260505234403 65 256 12.0 20.0 0.00 0.11 0.00 80 1009.1
20260505233402 65 251 11.0 16.0 0.00 0.11 0.00 79 1009.1
20260505232903 65 255 10.0 17.0 0.00 0.11 0.00 78 1009.0
20260505232403 65 237 9.0 16.0 0.00 0.11 0.00 78 1009.0
20260505231903 65 217 9.0 17.0 0.00 0.11 0.00 77 1009.0
20260505231403 65 240 9.0 12.0 0.00 0.11 0.00 76 1008.9
20260505230902 65 250 8.0 17.0 0.00 0.11 0.00 74 1008.8
20260505230403 65 235 9.0 13.0 0.00 0.11 0.00 74 1008.7
20260505225902 65 254 6.0 12.0 0.00 0.11 0.00 71 1008.7
20260505225403 65 229 6.0 13.0 0.00 0.11 0.00 68 1008.7
20260505224902 66 227 8.0 13.0 0.00 0.11 0.00 63 1008.7
20260505223902 67 239 7.0 12.0 0.00 0.11 0.00 53 1008.6
20260505223403 68 257 7.0 12.0 0.00 0.11 0.00 52 1008.6
20260505222902 68 274 7.0 12.0 0.00 0.11 0.00 48 1008.5
20260505221902 70 315 6.0 10.0 0.00 0.11 0.00 46 1008.5
20260505221403 70 284 2.0 3.0 0.00 0.11 0.00 44 1008.3
20260505220903 70 227 2.0 3.0 0.00 0.11 0.00 43 1008.2
20260505220402 70 268 3.0 7.0 0.00 0.11 0.00 44 1008.2
20260505215903 70 240 2.0 7.0 0.00 0.11 0.11 44 1008.2
20260505215402 70 225 3.0 6.0 0.00 0.11 0.11 44 1008.2
20260505214903 70 245 3.0 8.0 0.00 0.11 0.11 44 1008.2
20260505214402 70 212 5.0 8.0 0.00 0.11 0.11 44 1008.2
20260505213902 70 259 2.0 7.0 0.00 0.11 0.11 46 1008.3
20260505213403 70 222 3.0 6.0 0.00 0.11 0.11 45 1008.2
20260505212903 70 298 2.0 3.0 0.00 0.11 0.11 47 1008.3
20260505212402 70 237 5.0 7.0 0.00 0.11 0.11 46 1008.2
20260505211903 70 205 7.0 10.0 0.00 0.11 0.11 46 1008.3
20260505211403 70 243 6.0 12.0 0.00 0.11 0.11 46 1008.3
20260505210902 70 193 6.0 10.0 0.00 0.11 0.11 45 1008.3
20260505210403 70 208 3.0 10.0 0.00 0.11 0.11 44 1008.3
20260505205403 70 225 5.0 8.0 0.00 0.11 0.11 44 1008.3
20260505204903 70 197 7.0 12.0 0.00 0.11 0.11 42 1008.2
20260505204402 70 235 5.0 13.0 0.00 0.11 0.11 42 1008.3
20260505203902 70 221 8.0 13.0 0.00 0.11 0.11 42 1008.2
20260505203402 70 201 4.0 14.0 0.00 0.11 0.11 42 1008.2
20260505202903 70 199 8.0 16.0 0.00 0.11 0.11 42 1008.2
20260505201903 69 201 9.0 16.0 0.00 0.11 0.11 45 1008.2
20260505201403 70 217 8.0 15.0 0.00 0.11 0.11 43 1008.1
20260505200902 70 219 9.0 17.0 0.00 0.11 0.11 42 1008.1
20260505200402 70 222 6.0 9.0 0.00 0.11 0.11 43 1008.0
20260505195902 70 162 6.0 13.0 0.00 0.11 0.11 44 1007.9
20260505195402 70 164 7.0 16.0 0.00 0.11 0.11 44 1007.9